weather.gov     
National Weather Service

Regional Weather Roundup
NWS Homepage
This page is being discontinued on March 12, 2014.
The same data is available at this site. Please update your bookmarks.
Thank you, and we apologize for the inconvenience.
Please send an email to SR-SRH.Webmaster@noaa.gov with any concerns.


Current Version
Previous Version:    01  02  03  04  05  06  07  08  09  10  11  12  13  14  15  16  17  18  19  20  21  22  23  24  25  26  27  28  29  30  
   31  32  33  34  35  36  37  38  39  40  41  42  43  44  45  46  47  48  49  50  51  52  53  54  55  
[Printable]
407
ASUS43 KLMK 252110
RWRKY
SDFRWRKY ALL
KENTUCKY REGIONAL WEATHER ROUNDUP
NATIONAL WEATHER SERVICE LOUISVILLE KY
400 PM EST TUE NOV 25 2014

NOTE "FAIR" INDICATES FEW OR NO CLOUDS BELOW 12,000 FEET
WITH NO SIGNIFICANT WEATHER AND/OR OBSTRUCTIONS TO VISIBILITY.

KYZ001>023-026-027-061>063-070>075-252200-
WESTERN AND SOUTH CENTRAL KENTUCKY

CITY           SKY/WX    TMP DP  RH WIND       PRES   REMARKS
PADUCAH        SUNNY     43  25  49 SW5       30.14S
HENDERSON      PTSUNNY   39  27  60 NW7       30.16R WCI  34
OWENSBORO      MOSUNNY   41  29  62 N9        30.15F
HOPKINSVILLE   PTSUNNY   45  25  45 NW7       30.13S
BOWLING GREEN  SUNNY     47  23  38 CALM      30.13R
GLASGOW        MOSUNNY   45  26  47 SW6       30.13S
$$

KYZ024-025-028>034-038-045-046-053-252200-
NORTH CENTRAL KENTUCKY

CITY           SKY/WX    TMP DP  RH WIND       PRES   REMARKS
LOUISVILLE/SDF PTSUNNY   45  26  47 W8        30.13R
LOUISVILLE/LOU SUNNY     45  25  45 W6        30.13R
FORT KNOX      SUNNY     43  27  53 W8        30.11R
$$

KYZ035>037-039>044-047>052-055>060-089>105-252200-
NORTHEAST KENTUCKY

CITY           SKY/WX    TMP DP  RH WIND       PRES   REMARKS
LEXINGTON      MOSUNNY   45  26  47 SW6       30.11R
COVINGTON      PTSUNNY   43  27  53 W5        30.10S
FRANKFORT      MOSUNNY   44  26  49 W5        30.11R
$$

KYZ054-064>069-076>088-106>120-252200-
SOUTHEAST KENTUCKY

CITY           SKY/WX    TMP DP  RH WIND       PRES   REMARKS
JACKSON        SUNNY     51  24  34 VRB5      30.07R
LONDON         SUNNY     52  24  33 W8        30.08S
SOMERSET       SUNNY     48  30  49 N6        30.11S
MIDDLESBORO    SUNNY     55  27  33 W5        30.06S
MONTICELLO     PTCLDY    52  31  44 W5        30.12S
$$





U.S. Dept. of Commerce
NOAA National Weather Service
1325 East West Highway
Silver Spring, MD 20910
E-mail: w-nws.webmaster@noaa.gov
Page last modified: May 16, 2007
NATIONAL WEATHER SERVICE: for Safety, for Work, for Fun - FOR LIFE